Theta_e
286 282 281 283 282 283 283 281 280 280 283 281 281 282 286 286 286 285 285 284 285 286 286 287 288 289 290 291 292 291 290 289 289 289 289 289 290 291 292 293 294 295 296 297
282 281 284 284 283 282 281 280 279 281 283 281 280 281 286 285 284 283 283 284 284 285 285 286 287 288 289 290 289 288 289 289 289 289 289 290 289 290 291 292 294 295 296 296
281 283 285 284 281 281 280 280 279 280 281 280 279 281 283 284 285 284 284 284 285 284 285 286 287 287 287 287 287 289 290 290 289 290 290 290 289 290 290 292 292 294 295 296
281 283 283 281 281 281 279 281 281 281 277 273 279 275 280 282 283 283 283 282 284 285 286 287 287 286 286 286 287 289 290 290 290 290 290 289 288 288 289 291 292 293 294 294
281 280 280 280 280 282 280 281 281 280 274 271 274 271 279 280 280 282 281 283 283 285 286 287 287 287 287 287 287 288 288 289 290 291 291 290 290 290 290 290 290 291 292 293
280 282 281 281 282 282 283 281 281 279 274 267 272 274 277 279 280 280 282 282 284 285 286 287 287 288 287 287 287 287 288 289 292 291 290 289 289 288 289 289 289 290 290 290
279 279 280 283 280 282 281 278 267 269 267 271 274 270 278 281 280 281 283 283 283 285 286 286 287 287 288 288 288 288 289 291 290 290 290 289 289 288 288 288 288 288 288 289
275 274 280 282 280 279 279 278 273 267 269 272 274 270 279 281 281 283 284 284 285 284 285 285 286 288 288 288 287 288 291 290 289 289 289 289 289 288 288 288 288 288 290 290
276 278 280 282 282 282 278 276 280 269 261 268 272 277 281 281 281 282 284 286 287 286 285 285 286 287 288 287 287 291 291 290 289 289 289 288 288 288 288 287 288 289 290 290
283 280 281 282 284 284 280 282 277 276 269 266 271 271 277 278 279 282 285 286 287 287 285 286 287 287 286 285 288 290 289 288 288 288 288 289 289 289 289 288 288 289 289 289
281 284 278 281 279 279 278 278 279 281 280 272 269 275 281 280 281 282 285 286 286 285 285 286 286 285 285 284 287 287 287 287 287 288 288 288 288 288 288 287 287 289 289 289
283 281 271 277 279 280 280 279 280 278 275 275 275 275 283 282 283 285 285 286 286 285 285 285 285 284 284 284 284 284 285 286 286 287 287 287 289 290 289 289 288 288 289 289
282 276 266 273 277 278 277 279 280 279 277 272 272 275 283 283 284 285 285 284 284 283 283 284 284 284 284 284 284 283 284 285 286 286 286 286 287 289 287 287 288 288 288 288
285 278 274 272 274 277 275 277 279 278 270 273 275 276 280 281 283 284 284 284 282 282 283 284 283 283 283 283 282 282 283 284 285 285 285 285 286 286 286 286 287 288 288 288
281 270 272 272 275 276 277 277 277 276 277 274 278 278 282 283 283 283 284 284 282 281 282 282 283 282 282 282 282 282 283 284 285 284 284 284 286 285 285 285 286 287 287 288
279 269 269 267 270 275 277 279 277 277 277 276 276 277 283 283 284 283 283 282 281 281 281 282 283 283 283 283 283 283 283 283 284 286 286 285 284 284 285 286 286 286 286 287
277 271 269 265 267 267 268 277 278 278 277 277 275 282 283 281 282 283 282 282 282 281 280 279 281 282 281 281 283 282 282 283 283 286 286 285 284 285 285 286 286 286 286 286
275 273 276 268 267 268 275 275 277 280 282 281 282 283 282 282 282 283 283 282 282 279 280 282 281 279 280 282 282 282 282 280 280 284 282 283 283 285 285 285 285 285 285 285
282 279 274 272 264 270 276 275 275 275 275 281 282 284 283 282 280 280 283 283 283 278 279 279 278 278 277 276 280 278 276 276 278 276 277 279 279 284 285 285 285 285 284 284
280 282 278 266 267 265 273 277 278 278 272 279 280 281 280 280 276 279 282 282 280 276 273 278 278 278 276 276 274 275 278 275 276 277 278 278 277 279 283 283 284 284 284 284
275 276 274 275 270 268 275 277 278 268 272 277 280 280 279 279 281 281 280 281 280 276 276 276 275 277 276 274 276 274 273 275 277 276 276 277 277 277 278 283 283 282 283 283
271 271 272 275 272 269 278 276 275 279 279 280 279 279 280 280 281 281 281 283 282 276 275 276 275 277 277 278 278 276 273 277 275 274 274 275 274 275 277 282 283 283 282 282
270 277 274 275 273 281 278 280 282 281 280 280 280 279 280 280 280 280 281 280 281 280 278 276 276 278 279 278 278 279 278 276 274 272 279 280 275 277 278 276 282 282 283 282
275 278 276 277 279 278 280 279 279 280 282 283 282 281 280 280 281 281 281 281 281 282 281 277 277 277 278 279 278 278 278 276 274 274 275 280 275 275 275 277 282 282 282 282
276 276 276 275 279 278 279 280 281 281 282 282 282 281 281 281 281 281 280 280 281 281 281 281 281 280 280 280 278 276 277 277 276 275 276 278 277 276 275 275 275 279 281 284
278 277 274 274 279 280 281 281 282 281 281 283 282 281 281 281 281 280 280 280 280 279 279 278 279 278 279 277 277 278 275 275 275 277 278 277 277 276 276 276 274 283 284 285
Wind_Speed
2 3 9 11 7 2 4 3 3 2 1 2 4 10 20 6 7 8 7 8 8 6 3 5 6 8 8 7 8 6 8 5 4 4 3 3 2 2 2 4 5 5 5 5
3 9 6 2 4 5 3 2 5 3 2 0 4 12 17 5 2 3 6 8 8 3 5 6 7 7 6 7 7 7 7 5 4 3 2 1 0 2 2 2 4 5 6 5
7 2 4 6 5 5 3 5 4 5 1 2 6 8 4 1 2 5 6 3 5 5 6 6 7 7 8 8 8 7 6 6 5 4 3 3 2 2 3 2 3 3 6 6
6 3 5 3 4 6 4 4 3 3 4 4 3 6 5 2 5 5 6 6 6 7 6 6 6 6 6 5 5 6 6 6 5 5 4 3 1 3 2 3 4 6 5 6
6 6 5 4 4 6 3 4 5 3 5 4 4 4 9 2 1 3 3 4 5 6 7 8 7 6 5 6 5 5 5 6 4 5 5 4 4 3 4 4 7 8 6 5
4 1 3 3 3 2 8 6 6 4 4 3 5 5 6 3 3 2 2 3 5 7 6 6 6 6 5 4 4 4 4 4 6 5 5 5 5 6 7 8 7 7 6 6
1 3 1 3 6 4 3 6 3 4 3 7 1 3 9 4 2 5 7 6 5 6 7 6 7 6 5 5 4 3 5 3 4 5 5 5 5 6 6 7 6 8 7 6
6 5 8 4 4 7 6 6 7 8 4 4 4 7 5 3 2 3 5 6 5 5 2 4 4 4 4 5 3 2 3 3 5 5 5 4 5 3 4 5 6 6 7 8
5 3 1 2 1 2 5 6 3 9 1 3 3 5 7 2 4 4 7 7 7 6 4 4 4 4 3 2 1 2 1 2 2 3 4 5 5 5 4 6 6 6 9 8
6 2 1 1 1 1 3 3 3 2 3 3 4 5 5 7 8 6 5 6 5 4 4 2 3 2 1 1 2 3 1 2 3 3 4 4 5 5 5 5 8 9 9 9
4 3 2 3 8 9 3 3 2 1 2 5 1 7 5 11 10 11 7 5 6 4 1 0 0 2 1 1 1 2 3 3 4 4 5 6 6 6 7 6 7 10 10 9
5 3 4 6 0 1 1 6 6 5 5 3 2 8 5 9 10 9 7 6 5 4 4 2 1 2 3 4 3 4 3 4 4 4 5 6 7 7 8 7 9 9 10 10
5 2 2 8 4 3 5 5 3 4 3 7 7 7 3 6 6 7 8 6 6 5 4 2 1 2 3 4 5 5 5 5 5 5 5 6 7 7 7 8 9 9 9 11
2 2 7 9 6 4 5 5 6 5 4 6 8 4 3 7 9 8 7 7 7 8 7 5 4 4 4 5 5 6 6 5 5 5 5 6 7 7 7 8 10 9 10 11
5 5 4 3 3 1 3 4 8 12 9 8 6 11 9 13 15 12 10 7 7 8 8 8 5 5 6 5 5 5 6 5 4 5 5 6 6 6 7 8 8 10 11 10
1 3 3 4 3 2 4 9 8 9 4 9 3 10 7 4 6 6 10 7 8 8 9 8 7 7 6 5 4 4 4 3 1 5 7 7 6 6 9 11 12 13 13 11
3 6 5 7 3 3 6 18 11 7 8 8 11 17 5 6 9 12 10 8 10 8 10 8 9 8 5 5 4 4 4 2 3 6 6 8 6 8 9 11 11 11 12 12
5 4 3 3 2 9 6 1 1 16 15 11 12 13 6 7 8 6 8 7 9 9 8 7 6 4 5 3 3 4 3 3 3 6 8 7 5 6 7 10 9 10 10 11
10 5 4 6 5 8 13 6 7 8 9 14 20 18 9 5 1 7 8 8 10 9 8 7 5 5 3 4 5 3 3 3 5 7 6 5 3 7 7 9 10 9 10 10
12 13 9 3 6 12 8 7 6 6 12 9 13 14 13 7 3 7 8 7 5 6 4 6 5 3 3 5 3 0 5 3 6 6 6 4 3 5 6 9 9 8 8 9
6 12 20 14 10 9 6 5 5 7 8 3 7 7 8 7 7 3 4 6 5 5 5 2 3 5 5 4 3 3 4 7 6 4 3 3 3 5 3 7 8 7 9 9
10 7 10 13 13 19 7 5 11 5 1 5 5 6 8 6 5 5 6 6 5 3 2 3 4 6 5 4 4 5 5 6 4 3 3 4 4 3 2 5 7 10 7 9
7 11 7 8 6 5 10 7 11 5 5 5 6 5 7 7 5 7 5 4 3 3 3 3 4 5 5 5 5 6 7 4 3 3 5 6 3 3 2 2 4 5 6 7
6 3 3 2 2 7 8 4 1 6 7 7 7 7 7 7 7 6 5 4 3 2 3 3 3 5 8 5 6 8 7 3 3 6 5 6 4 4 3 2 2 3 5 6
6 8 9 6 6 7 7 7 9 8 5 7 7 8 9 8 6 7 7 7 6 5 5 4 6 6 9 7 6 5 7 5 5 6 5 6 5 5 4 4 4 3 4 4
11 15 8 9 10 12 14 7 9 9 11 12 9 6 5 7 8 8 7 7 7 7 6 6 8 7 9 6 8 8 6 6 6 6 5 5 4 4 4 3 3 7 6 5
Wind_Direction
19 108 213 208 199 142 137 190 243 231 51 331 256 278 283 294 291 308 319 324 306 261 268 133 123 119 111 103 111 111 109 65 67 50 38 33 1 327 339 347 347 350 351 357
50 228 209 145 163 207 205 181 260 290 50 306 351 283 281 283 303 3 331 347 355 49 70 98 108 102 98 120 111 101 93 80 70 80 90 121 259 277 257 296 325 343 351 341
175 200 118 156 164 163 210 182 201 208 339 63 326 290 332 7 24 24 19 18 40 72 107 95 99 111 116 122 134 124 99 79 63 48 38 8 351 340 325 338 318 344 324 320
232 244 178 175 200 146 216 181 130 134 89 228 14 274 294 359 23 30 26 48 65 84 90 101 119 118 129 121 100 90 79 69 60 45 55 51 13 316 291 303 298 315 310 304
237 165 170 173 205 171 218 103 110 92 88 49 321 73 264 316 33 8 61 93 99 107 126 130 129 129 118 103 91 82 82 67 56 62 57 38 348 284 293 306 312 318 304 285
255 346 187 189 81 75 147 75 49 59 92 -0 237 141 272 197 216 275 180 167 144 127 120 114 112 114 111 105 106 103 79 60 50 38 21 11 342 322 325 324 317 312 307 295
346 215 180 143 87 39 95 95 352 359 7 220 131 67 244 288 247 215 190 182 169 156 147 144 141 148 148 140 100 81 63 65 30 22 6 346 324 315 296 294 295 300 307 305
169 290 170 187 194 178 183 163 165 201 195 234 1 230 245 222 354 124 154 153 144 153 152 134 102 87 83 100 95 81 70 34 12 355 342 333 302 272 270 274 283 295 305 306
165 259 58 65 71 120 187 206 141 104 59 51 211 271 307 159 93 104 130 134 145 149 146 111 54 78 77 69 81 105 45 306 312 323 306 289 271 266 275 292 282 297 303 300
200 69 337 139 145 36 189 156 128 347 149 246 282 273 223 184 180 171 127 129 138 133 100 16 -0 51 65 123 193 192 219 283 292 307 319 319 302 293 299 291 293 294 294 295
154 149 161 142 203 181 155 211 216 117 107 173 232 258 223 182 175 169 170 161 173 162 146 148 34 344 330 274 275 299 291 298 311 332 319 311 302 300 309 298 290 289 291 288
186 125 176 202 143 61 213 206 168 159 203 227 159 272 317 172 168 159 166 196 213 202 192 192 206 320 345 335 309 287 289 292 300 298 297 303 294 317 299 288 293 289 288 286
191 215 43 338 358 2 220 199 173 102 66 200 145 257 17 102 159 185 166 216 234 198 181 260 292 294 294 297 299 297 292 288 283 288 299 299 284 304 296 287 289 285 284 285
115 168 176 202 194 136 198 194 184 149 145 163 221 170 159 211 193 209 211 209 214 202 191 209 222 239 268 272 273 279 280 268 265 272 287 282 274 284 283 283 288 288 291 291
154 212 168 256 308 278 229 197 186 204 216 185 204 210 215 205 210 218 217 208 203 208 210 215 209 216 242 247 257 254 247 244 247 263 278 274 281 288 288 289 294 303 303 290
27 231 93 317 1 304 284 260 210 220 228 258 260 263 222 165 204 244 236 187 206 222 205 212 214 224 239 252 265 273 276 276 227 300 299 295 295 308 322 323 321 319 316 303
169 136 116 258 354 61 314 234 197 203 203 168 219 240 146 186 205 230 248 231 237 214 203 206 213 214 226 238 250 264 259 252 263 287 291 298 303 321 322 323 316 314 317 317
164 158 186 223 103 221 244 358 235 226 232 215 251 247 206 212 223 235 223 219 228 202 203 210 206 210 228 219 251 254 239 248 250 275 271 268 283 298 314 317 313 312 313 316
175 180 212 215 217 313 288 193 185 177 254 212 230 250 255 259 81 266 231 212 218 189 195 196 186 186 209 242 250 242 250 229 237 253 250 259 264 305 309 317 316 317 315 318
190 210 224 129 207 216 268 209 176 103 264 214 201 218 237 128 199 262 223 194 182 180 179 193 195 191 181 258 189 229 284 277 271 263 253 236 232 269 287 316 313 316 314 314
186 218 225 224 225 276 233 218 148 123 242 202 177 213 159 190 202 228 138 136 154 179 203 184 172 200 219 229 165 234 269 271 250 247 245 248 247 260 266 317 316 318 318 317
179 183 215 230 236 244 156 79 202 199 238 167 182 187 198 207 185 159 157 120 116 157 214 217 221 239 243 220 167 262 262 251 252 228 231 257 251 258 261 321 322 328 317 328
227 213 211 194 218 199 197 211 209 170 151 182 164 175 161 151 146 152 150 164 202 221 237 210 206 262 261 217 202 255 257 296 296 250 248 267 250 235 237 275 317 314 315 341
238 191 187 358 232 263 236 242 247 193 187 173 166 168 160 155 166 173 177 203 221 246 266 183 186 250 273 254 212 223 272 269 258 261 256 269 237 229 224 221 292 310 310 337
205 147 207 259 248 240 276 224 205 212 204 163 169 177 171 168 190 196 200 212 221 235 247 228 237 240 246 261 252 223 241 226 248 249 254 255 236 219 215 213 204 200 276 333
213 223 208 228 224 242 259 229 205 194 202 202 170 206 216 194 194 192 203 207 207 215 227 232 239 238 249 256 252 255 231 198 221 253 257 233 226 217 213 203 259 243 237 294